Starlink 32006

operational
NORAD ID: 60029 Int'l Des: 2024-111 Owner: SPXS Country: US Constellation: starlink
LEOCIRCULAR

About Starlink 32006

Description loading...

Live Position

Loading 3D Globe...

Upcoming Passes

Altitude History

Altitude vs Time

uPlot chart will show altitude changes over time

Two-Line Element Set

1 60029U 24111P 26035.83738657 -.00000659 00000-0 -10142-4 0 9993
2 60029 53.1606 228.2217 0001114 98.9323 261.1804 15.30184309 94004
Epoch: Feb 4, 2026 • Age: 17 hours

Current Status

Altitude 480.2 km
Velocity 7.63 km/s
Sub-Earth Point -17.47°S, 93.13°E
Launch Date Jun 8, 2024
Age 1.6 years
Type internet

Technical Details

Classification Payload
Mass 730.00 kg
Dry Mass 700.00 kg
Total Mass 730.00 kg
Length 0.30 m
Diameter 4.10 m
Span 29.00 m
Shape Box + pan
Manufacturer SPXS
Bus Type Starlink V2M
Phase Status In Orbit
Owner/State SPXS/US

Large Constellations

Loading constellations...